Location: Doschendorf
(50.0069°N, 11.0602°E)
Time: 22:26:45
(UTC+00:00)

Cosmos 1862 - Pass Details

Date: 17 November 2019
Orbit: 538 x 557 km, 82.5° (Epoch: 11 December)

Event Time Altitude Azimuth Distance (km) Brightness Sun altitude
Rises 17:24:37 0° 346° (NNW) 2,710 6.9 -18.2°
Reaches altitude 10° 17:26:48 10° 343° (NNW) 1,814 6.1 -18.6°
Maximum altitude 17:30:43 58° 264° (W) 636 3.9 -19.2°
Drops below altitude 10° 17:34:37 10° 185° (S) 1,806 6.1 -19.8°
Sets 17:36:47 0° 182° (S) 2,697 6.9 -20.2°
